This is the latest recevied weather packets stored in our database for station/object KB3AWQ. If no packets are shown the sender has not sent any weather packets the latest 10 day(s).
| Time | Temp. | Humidity | Pressure | Rain* | Wind** | Luminosity | Snow |
|---|---|---|---|---|---|---|---|
| 1788119066 | 24.44° C | 81% | 1019.2 hPa | 0 mm | - | 80 W/m² | - |
| 1788118766 | 25° C | 81% | 1019.4 hPa | 0 mm | - | 62 W/m² | - |
| 1788118466 | 25° C | 82% | 1019.5 hPa | 0 mm | - | 63 W/m² | - |
| 1788118166 | 25° C | 82% | 1019.5 hPa | 0 mm | - | 60 W/m² | - |
| 1788117866 | 25° C | 81% | 1019.6 hPa | 0 mm | - | 83 W/m² | - |
| 1788117567 | 25° C | 80% | 1019.5 hPa | 0 mm | - | 113 W/m² | - |
| 1788117267 | 25° C | 80% | 1019.6 hPa | 0 mm | - | 92 W/m² | - |
| 1788116966 | 25° C | 80% | 1019.6 hPa | 0 mm | - | 81 W/m² | - |
| 1788116667 | 25° C | 80% | 1019.7 hPa | 0 mm | - | 75 W/m² | - |
| 1788116366 | 25° C | 80% | 1019.8 hPa | 0 mm | - | 75 W/m² | - |
| 1788116066 | 25.56° C | 80% | 1019.8 hPa | 0 mm | - | 67 W/m² | - |
| 1788115766 | 25.56° C | 78% | 1020 hPa | 0 mm | - | 68 W/m² | - |
| 1788115466 | 25.56° C | 78% | 1019.8 hPa | 0 mm | - | 104 W/m² | - |
| 1788115166 | 25° C | 78% | 1019.8 hPa | 0 mm | - | 134 W/m² | - |
| 1788114866 | 25.56° C | 77% | 1020 hPa | 0 mm | - | 109 W/m² | - |
| 1788114566 | 25.56° C | 78% | 1020.1 hPa | 0 mm | - | 107 W/m² | - |
| 1788114267 | 25° C | 78% | 1020.1 hPa | 0 mm | - | 155 W/m² | - |
| 1788113966 | 25° C | 77% | 1020.2 hPa | 0 mm | - | 158 W/m² | - |
| 1788113666 | 25.56° C | 77% | 1020.2 hPa | 0 mm | - | 202 W/m² | - |
| 1788113367 | 25.56° C | 78% | 1020.2 hPa | 0 mm | - | 144 W/m² | - |
| 1788113066 | 25.56° C | 76% | 1020.3 hPa | 0 mm | - | 117 W/m² | - |
| 1788112766 | 25.56° C | 76% | 1020.3 hPa | 0 mm | - | 160 W/m² | - |
| 1788112467 | 25.56° C | 75% | 1020.4 hPa | 0 mm | - | 187 W/m² | - |
| 1788112167 | 25.56° C | 75% | 1020.4 hPa | 0 mm | - | 255 W/m² | - |
| 1788111579 | 26.11° C | 73% | 1020.5 hPa | 0 mm | - | 520 W/m² | - |
* Rain latest hour (hover to see other rain measurements)
** Current wind speed in m/s (hover to see current wind gust speed)